Simultaneous Nadir Overpasses (SNOs) Predictions

Prediction of SNOs between GOES-16 and AQUA Satellite Orbit:

Table of predicted SNOs for the next 14.0 days since TLE Epoch: 11/21/2020
Index Date Time (GOES-16) GOES-16 Lat,Lon AQUA Lat,Lon Distance(km) Time Diff (sec)
1 11/21/2020 06:29:27 0.01, -75.15 -0.26, -73.88 145.30 80
2 11/21/2020 18:50:50 -0.01, -75.16 -0.85, -79.07 444.43 80
3 11/23/2020 06:17:16 0.01, -75.16 -0.87, -70.92 481.54 80
4 11/23/2020 18:38:40 -0.01, -75.17 -0.18, -76.12 107.97 80
5 11/25/2020 18:29:09 -0.01, -75.18 0.43, -73.16 229.41 80
6 11/26/2020 06:50:25 0.00, -75.18 0.66, -78.32 357.13 80
7 11/28/2020 06:38:14 0.01, -75.20 0.04, -75.37 19.14 80
8 11/30/2020 06:23:23 0.01, -75.22 -0.58, -72.41 319.13 80
9 11/30/2020 18:44:47 -0.00, -75.23 -0.53, -77.60 270.29 80
10 12/02/2020 18:35:16 -0.00, -75.25 0.10, -74.65 68.27 80
11 12/04/2020 18:23:05 0.01, -75.28 0.74, -71.69 406.97 80
